sat.trackr.live / text

‹ back to catalog

STARLINK-37344

NORAD 68744 · 2026-082S

PAYLOAD ACTIVE UNKNOWN

§ Identity

Operator
Country
US
Launch date
2026-04-15
Launch site
AFWTR
Launch vehicle
Mass (kg)
RCS (m²)

Purposes: comms

External: N2YO · Heavens-Above · Gunter

§ Orbital elements

Epoch: 2026-09-20T02:04:49.096704Z

Period
93.91 min
Inclination
97.2839°
Eccentricity
0.0001725
Mean motion
15.33435627 rev/d
Perigee alt
464.4 km
Apogee alt
466.8 km
Semi-major
6,843.7 km
B*
5.5001e-4
RAAN
125.2685°
Arg perigee
81.3592°
Mean anomaly
278.7846°
Rev number
2,424

§ Raw data

STARLINK-373441 68744U 26082S   26263.08667936  .00017718  00000+0  55001-3 0  99982 68744  97.2839 125.2685 0001725  81.3592 278.7846 15.33435627 24244

JSON: /api/v1/satellites/68744 · /tle

For live sub-satellite position, see the globe view (requires WebGL).

§ Visibility from observer

Set your observer location to see the next 7 days of passes ≥ 10°. The values pass through the URL so the page stays shareable.

No JS? Fill the form by hand. The geolocation button needs JavaScript.